Location: �chemir�
(47.5500°N, 0.1667°W)
Time: 05:45:52
(UTC+01:00)

ISS - Visible Passes

Search period start: 23 February 2018 00:00
Search period end: 05 March 2018 00:00
Orbit: 402 x 407 km, 51.6° (Epoch: 23 February)

Date Brightness Start Highest point End Pass type
(mag) Time Alt. Az. Time Alt. Az. Time Alt. Az.
25 Feb -0.8 07:15:23 10° S 07:17:19 15° SE 07:19:16 10° E visible
27 Feb -1.9 07:06:04 10° SSW 07:08:58 29° SE 07:11:52 10° E visible
28 Feb -1.2 06:14:34 10° S 06:16:51 18° SE 06:19:09 10° E visible
01 Mar -0.8 05:24:14 10° SE 05:24:48 10° SE 05:25:23 10° ESE visible
01 Mar -3.3 06:57:28 10° SW 07:00:41 58° SSE 07:03:55 10° ENE visible
02 Mar -2.5 06:06:45 20° SSW 06:08:27 35° SE 06:11:29 10° ENE visible
03 Mar -1.6 05:16:44 21° SE 05:16:44 21° SE 05:18:51 10° E visible
03 Mar -3.8 06:49:24 11° WSW 06:52:28 79° NNW 06:55:46 10° ENE visible
04 Mar -3.7 05:59:15 43° SW 06:00:08 69° SSE 06:03:24 10° ENE visible
